This is the latest recevied weather packets stored in our database for station/object KM5R. If no packets are shown the sender has not sent any weather packets the latest 10 day(s).
| Time | Temp. | Humidity | Pressure | Rain* | Wind** | Luminosity | Snow |
|---|---|---|---|---|---|---|---|
| 1777758391 | 22.22° C | 36% | 1021.8 hPa | 0 mm | - | 540 W/m² | - |
| 1777757779 | 23.33° C | 35% | 1022 hPa | 0 mm | - | 554 W/m² | - |
| 1777757175 | 23.33° C | 37% | 1021.8 hPa | 0 mm | - | 605 W/m² | - |
| 1777756873 | 23.89° C | 38% | 1022.2 hPa | 0 mm | - | 607 W/m² | - |
| 1777756568 | 23.33° C | 38% | 1022.1 hPa | 0 mm | - | 620 W/m² | - |
| 1777756265 | 23.33° C | 38% | 1022.3 hPa | 0 mm | - | 640 W/m² | - |
| 1777755963 | 22.78° C | 36% | 1022.5 hPa | 0 mm | - | 656 W/m² | - |
| 1777755356 | 22.78° C | 34% | 1022.5 hPa | 0 mm | - | 667 W/m² | - |
| 1777755053 | 22.78° C | 36% | 1022.8 hPa | 0 mm | - | 672 W/m² | - |
| 1777754449 | 22.78° C | 36% | 1022.8 hPa | 0 mm | - | 691 W/m² | - |
| 1777754144 | 22.22° C | 37% | 1022.7 hPa | 0 mm | - | 692 W/m² | - |
| 1777753842 | 22.22° C | 39% | 1022.8 hPa | 0 mm | - | 712 W/m² | - |
| 1777753537 | 22.22° C | 36% | 1022.7 hPa | 0 mm | - | 715 W/m² | - |
| 1777753236 | 21.67° C | 40% | 1023 hPa | 0 mm | - | 728 W/m² | - |
| 1777752931 | 22.22° C | 38% | 1022.9 hPa | 0 mm | - | 754 W/m² | - |
| 1777752628 | 22.22° C | 36% | 1023 hPa | 0 mm | - | 745 W/m² | - |
| 1777752324 | 22.22° C | 39% | 1022.8 hPa | 0 mm | - | 738 W/m² | - |
| 1777752022 | 21.67° C | 38% | 1023 hPa | 0 mm | - | 746 W/m² | - |
| 1777751720 | 21.67° C | 40% | 1023 hPa | 0 mm | - | 775 W/m² | - |
| 1777751415 | 21.67° C | 39% | 1023 hPa | 0 mm | - | 784 W/m² | - |
| 1777751113 | 21.67° C | 39% | 1023.2 hPa | 0 mm | - | 759 W/m² | - |
| 1777750506 | 22.22° C | 40% | 1023 hPa | 0 mm | - | 786 W/m² | - |
| 1777750202 | 22.22° C | 40% | 1023.1 hPa | 0 mm | - | 774 W/m² | - |
| 1777749898 | 21.11° C | 41% | 1023.1 hPa | 0 mm | - | 789 W/m² | - |
| 1777749595 | 20.56° C | 38% | 1023 hPa | 0 mm | - | 791 W/m² | - |
* Rain latest hour (hover to see other rain measurements)
** Current wind speed in m/s (hover to see current wind gust speed)